Location: Caltech
(34.1382°N, 118.1253°W)
Time: 03:33:18
(UTC-07:00)

Meteor 2-4 Rocket - Visible Passes

Search period start: 02 September 2015 00:00
Search period end: 12 September 2015 00:00
Orbit: 800 x 908 km, 81.2° (Epoch: 01 September)

Date Brightness Start Highest point End Pass type
(mag) Time Alt. Az. Time Alt. Az. Time Alt. Az.
02 Sep 5.9 19:49:10 10° NNW 19:54:23 32° W 19:59:25 10° SSW visible
03 Sep 5.8 19:38:08 10° NNW 19:43:27 34° W 19:48:33 10° SSW visible
04 Sep 5.7 19:27:07 10° NNW 19:32:30 37° W 19:37:42 10° SSW visible
09 Sep 6.2 06:06:11 10° SSE 06:10:59 29° E 06:16:01 10° NNE visible
10 Sep 6.2 05:55:21 10° SE 06:00:02 28° E 06:04:58 10° NNE visible
11 Sep 6.3 05:44:32 10° SE 05:49:06 26° E 05:53:55 10° NE visible
